Header for Extended Forecast Station List Page

Search by: ID | Name | Date | Parm | Value | Avg | % Avg
Sort by: ID | Name | Date | Parm | Value | Avg | % Avg

Enter search or view all records.

Click on id for station plot
#IDNameDateParmValueAvg% Avg
0HWRI1BIG LOST-AT HOWELL RANCH NEAR CHILLY06-20-2016DISCHARGE (KAF)538463
1MACI1BIG LOST-MACKAY RESERVOIR NEAR MACKAY06-20-2016INFLOW (KAF)637188
2HALI1BIG WOOD-AT HAILEY06-20-2016DISCHARGE (KAF)6810764
3MAGI1BIG WOOD-MAGIC DAM06-20-2016INFLOW (KAF)276243
4BITM8BITTERROOT-NEAR MISSOULA06-20-2016DISCHARGE (KAF)21645647
5BONM8BLACKFOOT-NEAR BONNER06-20-2016DISCHARGE (KAF)14431046
6BIGI1BOISE-AT GLENWOOD BRIDGE06-20-2016DISCHARGE (KAF)259219118
7LUCI1BOISE-LUCKY PEAK DAM06-20-2016INFLOW (KAF)572MM
8PARI1BOISE-NEAR PARMA06-20-2016DISCHARGE (KAF)270228118
9HOTI1BRUNEAU-NEAR HOT SPRINGS06-20-2016DISCHARGE (KAF)4238110
10BULO3BULLY CREEK-BULLY CREEK DAM06-20-2016INFLOW (KAF)M0M
11BUDW1BUMPING-BUMPING LAKE DAM06-20-2016INFLOW (KAF)143937
12CHDW1CHELAN-LAKE CHELAN DAM06-20-2016INFLOW (KAF)16446735
13ABOM8CLARK FORK-ABOVE MISSOULA06-20-2016DISCHARGE (KAF)29259649
14DLGM8CLARK FORK-AT DEER LODGE06-20-2016DISCHARGE (KAF)224450
15SRGM8CLARK FORK-AT ST REGIS06-20-2016DISCHARGE (KAF)673139748
16BELM8CLARK FORK-BELOW MISSOULA06-20-2016DISCHARGE (KAF)507107647
17CABI1CLARK FORK-CABINET GORGE DAM06-20-2016INFLOW (KAF)2723457859
18NOXM8CLARK FORK-NOXON RAPIDS DAM06-20-2016INFLOW (KAF)2470427158
19DRMM8CLARK FORK-NR DRUMMOND06-20-2016DISCHARGE (KAF)67MM
20CLUW1CLE ELUM-CLE ELUM LAKE06-20-2016INFLOW (KAF)3512627
21ORFI1CLEARWATER-AT OROFINO06-20-2016DISCHARGE (KAF)520106749
22SPDI1CLEARWATER-AT SPALDING06-20-2016DISCHARGE (KAF)21511822118
23COEI1COEUR D ALENE-COEUR D ALENE LAKE06-20-2016INFLOW (KAF)21634862
24CIBW1COLUMBIA-AT INTL BOUNDARY06-20-2016DISCHARGE (KAF)18322MM
25BONO3COLUMBIA-BONNEVILLE DAM06-20-2016INFLOW (KAF)28137MM
26CHJW1COLUMBIA-CHIEF JOSEPH DAM06-20-2016INFLOW (KAF)182242437875
27GCDW1COLUMBIA-GRAND COULEE DAM06-20-2016INFLOW (KAF)191412898466
28JDAO3COLUMBIA-JOHN DAY DAM06-20-2016INFLOW (KAF)271983934869
29MCDW1COLUMBIA-MCNARY DAM06-20-2016INFLOW (KAF)268043882469
30PRWW1COLUMBIA-PRIEST RAPIDS DAM06-20-2016INFLOW (KAF)193153004764
31RRHW1COLUMBIA-ROCKY REACH DAM06-20-2016INFLOW (KAF)189912597273
32TDAO3COLUMBIA-THE DALLES DAM06-20-2016INFLOW (KAF)276423696475
33WANW1COLUMBIA-WANAPUM DAM06-20-2016INFLOW (KAF)193102955265
34WELW1COLUMBIA-WELLS DAM06-20-2016INFLOW (KAF)186932535474
35DEDI1DEADWOOD-NEAR LOWMAN06-20-2016INFLOW (KAF)194148
36MODO3DESCHUTES-AT MOODY NR BIGGS06-20-2016DISCHARGE (KAF)1054108997
37ARDW1ENTIAT-NEAR ARDENVOIR06-20-2016DISCHARGE (KAF)397850
38CHEI1FALL RIVER-NEAR CHESTER06-20-2016DISCHARGE (KAF)3910537
39CFMM8FLATHEAD-AT COLUMBIA FALLS06-20-2016DISCHARGE (KAF)1306193368
40KERM8FLATHEAD-KERR DAM06-20-2016INFLOW (KAF)1413235260
41TRYO3GRANDE RONDE-TROY06-20-2016DISCHARGE (KAF)22333567
42REXI1HENRYS FORK-AT REXBURG06-20-2016DISCHARGE (KAF)24638764
43ANTI1HENRYS FORK-AT ST. ANTHONY06-20-2016DISCHARGE (KAF)21133363
44IPDI1HENRYS FORK-ISLAND PARK DAM06-20-2016INFLOW (KAF)10915869
45HODO3HOOD-NEAR TUCKER BRIDGE06-20-2016DISCHARGE (KAF)869689
46SERO3JOHN DAY-AT SERVICE CK06-20-2016DISCHARGE (KAF)429445
47KADW1KACHESS-KACHESS DAM06-20-2016INFLOW (KAF)82337
48LAUW1KETTLE-AT LAURIER06-20-2016DISCHARGE (KAF)24638863
49PITW1KLICKITAT-NEAR PITT06-20-2016DISCHARGE (KAF)21322495
50BFEI1KOOTENAI-AT BONNERS FERRY06-20-2016STAGE (FT)MMM
51LEOI1KOOTENAI-AT LEONIA06-20-2016DISCHARGE (KAF)1787316956
52LYDM8KOOTENAI-LIBBY DAM06-20-2016INFLOW (KAF)1668326151
53LWRI1LITTLE WOOD-LITTLE WOOD DAM06-20-2016INFLOW (KAF)132258
54BERO3MALHEUR-AGENCY VALLEY DAM06-20-2016INFLOW (KAF)8899
55VALO3MALHEUR-NEAR VALE06-20-2016DISCHARGE (KAF)73122
56WRMO3MALHEUR-WARM SPRINGS DAM06-20-2016INFLOW (KAF)22115
57MYKO3MCKAY CREEK-NEAR PILOT ROCK06-20-2016DISCHARGE (KAF)0024
58PATW1METHOW-NEAR PATEROS06-20-2016DISCHARGE (KAF)14228849
59WGCM8MF FLATHEAD-NEAR WEST GLACIER06-20-2016DISCHARGE (KAF)35057761
60CLFW1NACHES-NEAR CLIFFDEL06-20-2016DISCHARGE (KAF)7513157
61NACW1NACHES-NEAR NACHES06-20-2016DISCHARGE (KAF)15620576
62DWRI1NF CLEARWATER-DWORSHAK DAM06-20-2016INFLOW (KAF)31161151
63FCFM8NF FLATHEAD-NEAR COLUMBIA FALLS06-20-2016DISCHARGE (KAF)36463358
64MONO3NF JOHN DAY-AT MONUMENT06-20-2016DISCHARGE (KAF)296544
65CSDI1NF PAYETTE-CASCADE DAM06-20-2016INFLOW (KAF)6910168
66TONW1OKANOGAN-NEAR TONASKET06-20-2016DISCHARGE (KAF)31154657
67OWYO3OWYHEE-OWYHEE DAM06-20-2016INFLOW (KAF)6156109
68EMMI1PAYETTE-NEAR EMMETT06-20-2016DISCHARGE (KAF)35453167
69ALFW1PEND OREILLE-ALBENI FALLS DAM06-20-2016INFLOW (KAF)2895491859
70HOPI1PEND OREILLE-PEND OREILLE LAKE NR HOPE06-20-2016LAKE ELEVATION (FT)MMM
71PIHI1PORTNEUF-AT POCATELLO06-20-2016DISCHARGE (KAF)122352
72PRTI1PRIEST-NEAR PRIEST RIVER06-20-2016DISCHARGE (KAF)16419683
73RCCM8ROCK CREEK-NEAR CLINTON06-20-2016DISCHARGE (KAF)6911759
74WHBI1SALMON-AT WHITEBIRD06-20-2016DISCHARGE (KAF)1462226665
75ARAI1SF BOISE-ANDERSON RANCH DAM06-20-2016INFLOW (KAF)7813658
76HHWM8SF FLATHEAD-HUNGRY HORSE DAM06-20-2016INFLOW (KAF)30257752
77PLDI1SF SNAKE-PALISADES DAM06-20-2016INFLOW (KAF)1461195275
78SIFI1SNAKE-AB EAGLE ROCK NR IDAHO FALLS06-20-2016DISCHARGE (KAF)1347153988
79AFRI1SNAKE-AMERICAN FALLS RESERVOIR06-20-2016INFLOW (KAF)1144132486
80SNAI1SNAKE-AT BLACKFOOT06-20-2016DISCHARGE (KAF)63874286
81MILI1SNAKE-AT MILNER06-20-2016DISCHARGE (KAF)9586111
82WEII1SNAKE-AT WEISER06-20-2016DISCHARGE (KAF)2578296787
83SWAI1SNAKE-BELOW SWAN FALLS06-20-2016DISCHARGE (KAF)1636194284
84BRNI1SNAKE-BROWNLEE DAM06-20-2016INFLOW (KAF)2739305290
85IHDW1SNAKE-ICE HARBOR DAM06-20-2016INFLOW (KAF)6896778689
86JLKW4SNAKE-JACKSON LAKE AT DAM06-20-2016INFLOW (KAF)16234547
87LGSW1SNAKE-LITTLE GOOSE DAM06-20-2016INFLOW (KAF)6899784688
88LGDW1SNAKE-LOWER GRANITE DAM06-20-2016INFLOW (KAF)6906782388
89LMNW1SNAKE-LOWER MONUMENTAL DAM06-20-2016INFLOW (KAF)6900787088
90ALPW4SNAKE-NEAR ALPINE06-20-2016DISCHARGE (KAF)1110145776
91ANAW1SNAKE-NEAR ANATONE06-20-2016DISCHARGE (KAF)4756591780
92BFTI1SNAKE-NEAR BLACKFOOT06-20-2016DISCHARGE (KAF)62067791
93HEII1SNAKE-NEAR HEISE06-20-2016DISCHARGE (KAF)2252229098
94JKSW4SNAKE-NEAR JACKSON06-20-2016DISCHARGE (KAF)943119679
95SHYI1SNAKE-NEAR SHELLEY06-20-2016DISCHARGE (KAF)1170122695
96LLKW1SPOKANE-AT LONGLAKE06-20-2016INFLOW (KAF)52667978
97SPOW1SPOKANE-AT SPOKANE06-20-2016DISCHARGE (KAF)377MM
98SJMI1ST JOE-AT ST MARIES06-20-2016STAGE (FT)MMM
99SATI1ST MARIES-NEAR SANTA06-20-2016DISCHARGE (KAF)152463
100STRM8ST. REGIS-NEAR ST. REGIS06-20-2016DISCHARGE (KAF)315260
101TNAW1TEANAWAY-BELOW FORKS06-20-2016DISCHARGE (KAF)71352
102TEAI1TETON-NEAR ST. ANTHONY06-20-2016DISCHARGE (KAF)17322278
103RILW1TIETON-RIMROCK LAKE NEAR RIMROCK06-20-2016INFLOW (KAF)809782
104PDTO3UMATILLA-AT PENDLETON06-20-2016DISCHARGE (KAF)71448
105GIBO3UMATILLA-NEAR GIBBON06-20-2016DISCHARGE (KAF)121392
106UMAO3UMATILLA-NEAR UMATILLA06-20-2016DISCHARGE (KAF)243733
107TCHW1WALLA WALLA-NEAR TOUCHET06-20-2016DISCHARGE (KAF)3832
108WSRI1WEISER-NEAR WEISER06-20-2016DISCHARGE (KAF)546978
109PESW1WENATCHEE-AT PESHASTIN06-20-2016DISCHARGE (KAF)30557153
110UNDW1WHITE SALMON-NEAR UNDERWOOD06-20-2016DISCHARGE (KAF)180178102
111RIDI1WILLOW CREEK-RIRIE DAM06-20-2016INFLOW (KAF)3647
112EASW1YAKIMA-AT EASTON06-20-2016DISCHARGE (KAF)9877127
113KIOW1YAKIMA-AT KIONA06-20-2016DISCHARGE (KAF)499434115
114UMTW1YAKIMA-AT UMTANUM06-20-2016DISCHARGE (KAF)65468396
115KEDW1YAKIMA-KEECHELUS LAKE06-20-2016INFLOW (KAF)153151
116PARW1YAKIMA-NEAR PARKER06-20-2016DISCHARGE (KAF)185113164